Time,TemperatureF,DewpointF,PressureIn,WindDirection,WindDirectionDegrees,WindSpeedMPH,WindSpeedGustMPH,Humidity,HourlyPrecipIn,Conditions,Clouds,dailyrainin,SoftwareType,DateUTC
2013-04-22 00:02:00,56.2,9.2,29.74,WSW,249,2.0,6.0,15,0.00,,SKC,0.00,VWS V12.07,2013-04-22 07:02:00,
2013-04-22 01:02:00,55.7,7.3,29.73,West,273,0.0,5.0,14,0.00,,SKC,0.00,VWS V12.07,2013-04-22 08:02:00,
2013-04-22 02:02:00,55.6,5.6,29.71,WNW,289,0.0,6.0,13,0.00,,SKC,0.00,VWS V12.07,2013-04-22 09:02:00,
2013-04-22 03:02:00,56.5,4.5,29.69,WNW,294,4.0,6.0,12,0.00,,SKC,0.00,VWS V12.07,2013-04-22 10:02:00,
2013-04-22 04:02:00,55.9,5.8,29.68,WNW,290,2.0,9.0,13,0.00,,SKC,0.00,VWS V12.07,2013-04-22 11:02:00,
2013-04-22 05:02:00,55.6,3.8,29.67,NW,305,1.0,5.0,12,0.00,,SKC,0.00,VWS V12.07,2013-04-22 12:02:00,
2013-04-22 06:02:00,56.6,-13.6,29.68,NW,319,2.0,6.0,5,0.00,,SKC,0.00,VWS V12.07,2013-04-22 13:02:00,
2013-04-22 07:02:00,57.8,-9.1,29.68,NNW,339,0.0,1.0,6,0.00,,SKC,0.00,VWS V12.07,2013-04-22 14:02:00,
2013-04-22 08:02:00,61.6,-3.1,29.69,NW,317,2.0,5.0,7,0.00,,SKC,0.00,VWS V12.07,2013-04-22 15:02:00,
2013-04-22 09:03:00,65.6,9.7,29.68,NW,325,2.0,4.0,11,0.00,,SKC,0.00,VWS V12.07,2013-04-22 16:03:00,
2013-04-22 10:02:00,67.6,15.0,29.69,WNW,302,1.0,4.0,13,0.00,,SKC,0.00,VWS V12.07,2013-04-22 17:02:00,
2013-04-22 11:03:00,67.8,21.4,29.69,NW,304,3.0,6.0,17,0.00,,SKC,0.00,VWS V12.07,2013-04-22 18:03:00,
2013-04-22 12:03:00,66.1,22.7,29.68,WNW,300,6.0,12.0,19,0.00,,SKC,0.00,VWS V12.07,2013-04-22 19:03:00,
2013-04-22 13:02:00,65.5,30.7,29.67,NW,305,6.0,12.0,27,0.00,,SKC,0.00,VWS V12.07,2013-04-22 20:02:00,
2013-04-22 14:02:00,66.4,29.5,29.67,NW,313,4.0,14.0,25,0.00,,SKC,0.00,VWS V12.07,2013-04-22 21:02:00,
2013-04-22 15:02:00,65.3,30.5,29.65,WNW,303,6.0,10.0,27,0.00,,SKC,0.00,VWS V12.07,2013-04-22 22:02:00,
2013-04-22 16:02:00,64.5,30.7,29.63,West,281,7.0,12.0,28,0.00,,SKC,0.00,VWS V12.07,2013-04-22 23:02:00,
2013-04-22 17:03:00,61.0,37.2,29.62,WNW,289,9.0,14.0,41,0.00,,SKC,0.00,VWS V12.07,2013-04-23 00:03:00,
2013-04-22 18:03:00,59.2,28.6,29.61,WNW,294,6.0,15.0,31,0.00,,SKC,0.00,VWS V12.07,2013-04-23 01:03:00,
2013-04-22 19:02:00,55.9,30.7,29.60,NW,309,7.0,10.0,38,0.00,,SKC,0.00,VWS V12.07,2013-04-23 02:02:00,
2013-04-22 21:02:00,52.3,20.2,29.62,West,270,7.0,14.0,28,0.00,,SKC,0.00,VWS V12.07,2013-04-23 04:02:00,
2013-04-22 22:02:00,52.2,19.2,29.62,WNW,298,12.0,18.0,27,0.00,,SKC,0.00,VWS V12.07,2013-04-23 05:02:00,
2013-04-22 23:01:00,52.6,21.3,29.62,NW,305,11.0,11.0,29,0.00,,SKC,0.00,VWS V12.07,2013-04-23 06:01:00,